QPF
0.19 0.14 0.09 0.06 0.05 0.04 0.03 0.02 0.02 0.01 0.01 0.00 0.00 0.00 0.00 0.00 0.00 0.00 0.00 0.00 0.00 0.00 0.00 0.00 0.00 0.00 0.00 0.00 0.00 0.00 0.00 0.00 0.00 0.00 0.00 0.00 0.00 0.00 0.00 0.00 0.00 0.00 0.00
0.06 0.04 0.04 0.04 0.03 0.03 0.02 0.01 0.01 0.00 0.00 0.00 0.00 0.00 0.00 0.00 0.00 0.00 0.00 0.00 0.00 0.00 0.00 0.00 0.00 0.00 0.00 0.00 0.00 0.00 0.00 0.00 0.00 0.00 0.00 0.00 0.00 0.00 0.00 0.00 0.00 0.00 0.00
0.02 0.02 0.02 0.02 0.01 0.01 0.00 0.00 0.00 0.00 0.00 0.00 0.00 0.00 0.00 0.00 0.00 0.00 0.00 0.00 0.00 0.00 0.00 0.00 0.00 0.00 0.00 0.00 0.00 0.00 0.00 0.00 0.00 0.00 0.00 0.00 0.00 0.00 0.00 0.00 0.00 0.00 0.00
0.01 0.01 0.00 0.00 0.00 0.00 0.00 0.00 0.00 0.00 0.00 0.00 0.00 0.00 0.00 0.00 0.00 0.00 0.00 0.00 0.00 0.00 0.00 0.00 0.00 0.00 0.00 0.00 0.00 0.00 0.00 0.01 0.01 0.01 0.01 0.01 0.01 0.00 0.01 0.01 0.01 0.00 0.00
0.00 0.00 0.00 0.00 0.00 0.01 0.01 0.01 0.00 0.00 0.00 0.00 0.00 0.00 0.00 0.00 0.00 0.00 0.00 0.00 0.00 0.00 0.00 0.00 0.00 0.00 0.00 0.00 0.01 0.01 0.01 0.01 0.01 0.02 0.02 0.01 0.01 0.01 0.01 0.01 0.01 0.00 0.00
0.00 0.01 0.01 0.02 0.02 0.01 0.01 0.00 0.00 0.00 0.00 0.00 0.00 0.00 0.00 0.00 0.00 0.00 0.00 0.00 0.00 0.00 0.00 0.00 0.00 0.00 0.00 0.00 0.01 0.01 0.02 0.02 0.02 0.02 0.03 0.03 0.02 0.01 0.01 0.02 0.01 0.01 0.01
0.02 0.03 0.03 0.03 0.02 0.01 0.00 0.00 0.00 0.00 0.00 0.00 0.00 0.00 0.00 0.00 0.00 0.00 0.00 0.00 0.00 0.00 0.00 0.00 0.00 0.00 0.00 0.00 0.00 0.01 0.01 0.01 0.02 0.03 0.04 0.03 0.02 0.02 0.03 0.04 0.03 0.03 0.02
0.04 0.04 0.03 0.02 0.01 0.01 0.00 0.00 0.00 0.00 0.00 0.00 0.00 0.00 0.00 0.00 0.00 0.00 0.00 0.00 0.00 0.00 0.00 0.00 0.00 0.00 0.00 0.01 0.01 0.00 0.00 0.00 0.01 0.02 0.03 0.03 0.03 0.03 0.05 0.05 0.05 0.04 0.03
0.03 0.02 0.02 0.01 0.01 0.01 0.00 0.00 0.00 0.00 0.00 0.00 0.00 0.00 0.00 0.00 0.00 0.00 0.00 0.00 0.00 0.00 0.00 0.00 0.00 0.00 0.01 0.01 0.01 0.01 0.01 0.00 0.01 0.02 0.04 0.04 0.05 0.05 0.06 0.05 0.06 0.06 0.04
0.01 0.01 0.01 0.00 0.00 0.00 0.00 0.00 0.00 0.00 0.00 0.00 0.00 0.00 0.00 0.00 0.00 0.00 0.00 0.00 0.00 0.00 0.00 0.00 0.00 0.00 0.01 0.01 0.01 0.02 0.03 0.02 0.02 0.02 0.03 0.03 0.03 0.04 0.05 0.05 0.06 0.06 0.06
0.00 0.00 0.00 0.00 0.00 0.00 0.00 0.00 0.00 0.00 0.00 0.00 0.00 0.00 0.00 0.00 0.00 0.00 0.00 0.00 0.00 0.00 0.00 0.00 0.00 0.01 0.01 0.01 0.02 0.03 0.04 0.04 0.03 0.03 0.03 0.03 0.03 0.03 0.04 0.04 0.05 0.07 0.07
0.00 0.00 0.00 0.00 0.00 0.00 0.00 0.00 0.00 0.00 0.00 0.00 0.00 0.00 0.00 0.00 0.00 0.00 0.00 0.00 0.00 0.00 0.00 0.00 0.01 0.01 0.01 0.01 0.02 0.02 0.03 0.03 0.02 0.03 0.04 0.05 0.05 0.04 0.04 0.04 0.04 0.05 0.06
0.00 0.00 0.00 0.00 0.00 0.00 0.00 0.00 0.00 0.00 0.00 0.00 0.00 0.00 0.00 0.00 0.00 0.00 0.00 0.00 0.00 0.00 0.00 0.00 0.01 0.01 0.01 0.02 0.02 0.02 0.02 0.03 0.03 0.05 0.07 0.07 0.05 0.04 0.03 0.02 0.02 0.03 0.03
0.00 0.00 0.00 0.00 0.00 0.00 0.00 0.00 0.00 0.00 0.00 0.00 0.00 0.00 0.00 0.00 0.00 0.00 0.00 0.00 0.00 0.00 0.00 0.00 0.01 0.01 0.02 0.02 0.02 0.02 0.03 0.04 0.05 0.06 0.06 0.05 0.04 0.04 0.03 0.02 0.01 0.01 0.02
0.00 0.00 0.00 0.00 0.00 0.00 0.00 0.00 0.00 0.00 0.00 0.00 0.00 0.00 0.00 0.00 0.00 0.00 0.00 0.00 0.00 0.00 0.00 0.00 0.00 0.01 0.02 0.02 0.02 0.02 0.04 0.05 0.05 0.04 0.03 0.03 0.03 0.03 0.02 0.02 0.01 0.01 0.02
0.00 0.00 0.00 0.00 0.00 0.00 0.00 0.00 0.00 0.00 0.00 0.00 0.00 0.00 0.00 0.00 0.00 0.00 0.00 0.00 0.00 0.01 0.00 0.00 0.01 0.02 0.03 0.03 0.03 0.04 0.05 0.05 0.04 0.04 0.03 0.02 0.03 0.02 0.02 0.02 0.01 0.01 0.02
0.00 0.00 0.00 0.00 0.00 0.00 0.00 0.00 0.00 0.00 0.00 0.00 0.00 0.00 0.00 0.00 0.00 0.00 0.00 0.00 0.01 0.01 0.01 0.01 0.02 0.03 0.03 0.03 0.03 0.05 0.05 0.04 0.03 0.03 0.03 0.03 0.03 0.02 0.01 0.01 0.01 0.01 0.02
0.00 0.00 0.00 0.00 0.00 0.00 0.00 0.00 0.00 0.00 0.00 0.00 0.00 0.00 0.00 0.00 0.01 0.01 0.00 0.00 0.00 0.01 0.01 0.02 0.02 0.03 0.04 0.03 0.03 0.04 0.04 0.03 0.02 0.02 0.03 0.03 0.02 0.01 0.01 0.01 0.01 0.01 0.01
0.00 0.00 0.00 0.00 0.00 0.00 0.00 0.00 0.00 0.00 0.00 0.00 0.00 0.00 0.01 0.01 0.01 0.01 0.01 0.01 0.01 0.02 0.02 0.02 0.02 0.03 0.03 0.03 0.03 0.03 0.03 0.02 0.02 0.02 0.02 0.02 0.02 0.01 0.01 0.01 0.01 0.01 0.01
0.00 0.00 0.00 0.00 0.00 0.00 0.00 0.00 0.00 0.00 0.00 0.00 0.00 0.00 0.01 0.02 0.02 0.02 0.01 0.01 0.02 0.02 0.03 0.03 0.02 0.03 0.03 0.03 0.02 0.02 0.02 0.01 0.01 0.01 0.01 0.01 0.01 0.01 0.00 0.00 0.00 0.00 0.01
0.00 0.00 0.00 0.00 0.00 0.00 0.00 0.00 0.00 0.00 0.00 0.00 0.00 0.01 0.03 0.03 0.03 0.03 0.02 0.02 0.02 0.03 0.04 0.03 0.02 0.02 0.02 0.03 0.02 0.01 0.01 0.00 0.00 0.00 0.00 0.00 0.00 0.00 0.00 0.00 0.00 0.00 0.00
0.00 0.00 0.00 0.00 0.00 0.00 0.00 0.00 0.00 0.00 0.00 0.00 0.00 0.01 0.03 0.03 0.03 0.03 0.02 0.03 0.03 0.03 0.04 0.03 0.01 0.01 0.01 0.01 0.01 0.00 0.00 0.00 0.00 0.00 0.00 0.00 0.00 0.00 0.00 0.00 0.00 0.00 0.00
0.00 0.00 0.00 0.00 0.00 0.00 0.00 0.00 0.00 0.00 0.00 0.00 0.00 0.01 0.01 0.02 0.03 0.04 0.03 0.02 0.02 0.02 0.02 0.02 0.02 0.01 0.00 0.00 0.00 0.00 0.00 0.00 0.00 0.00 0.00 0.00 0.00 0.00 0.00 0.00 0.00 0.00 0.00
0.00 0.00 0.00 0.00 0.00 0.00 0.00 0.00 0.00 0.00 0.00 0.00 0.00 0.00 0.01 0.01 0.02 0.02 0.03 0.03 0.03 0.02 0.02 0.02 0.01 0.01 0.00 0.00 0.00 0.00 0.00 0.00 0.00 0.00 0.00 0.00 0.00 0.00 0.00 0.00 0.00 0.00 0.00
0.00 0.00 0.00 0.00 0.00 0.00 0.00 0.00 0.00 0.00 0.00 0.00 0.00 0.00 0.00 0.00 0.01 0.02 0.02 0.02 0.03 0.03 0.02 0.01 0.01 0.00 0.00 0.00 0.00 0.00 0.00 0.00 0.00 0.00 0.00 0.00 0.00 0.00 0.00 0.00 0.00 0.00 0.00
0.00 0.00 0.00 0.00 0.00 0.00 0.00 0.00 0.00 0.00 0.00 0.00 0.00 0.00 0.00 0.00 0.00 0.01 0.01 0.02 0.02 0.02 0.01 0.01 0.00 0.00 0.00 0.00 0.00 0.00 0.00 0.00 0.00 0.00 0.00 0.00 0.00 0.00 0.00 0.00 0.00 0.00 0.00
MSLP
1016.45 1016.97 1017.49 1018.00 1018.46 1018.88 1019.28 1019.65 1020.04 1020.42 1020.83 1021.23 1021.62 1021.97 1022.27 1022.50 1022.66 1022.76 1022.82 1022.84 1022.85 1022.83 1022.80 1022.73 1022.61 1022.43 1022.17 1021.84 1021.45 1021.02 1020.56 1020.11 1019.68 1019.26 1018.88 1018.50 1018.13 1017.74 1017.34 1016.92 1016.49 1016.06 1015.65
1017.27 1017.72 1018.18 1018.63 1019.05 1019.44 1019.81 1020.16 1020.52 1020.88 1021.24 1021.60 1021.94 1022.24 1022.50 1022.69 1022.82 1022.90 1022.94 1022.94 1022.92 1022.88 1022.81 1022.70 1022.54 1022.32 1022.02 1021.65 1021.23 1020.78 1020.30 1019.84 1019.38 1018.95 1018.53 1018.12 1017.70 1017.28 1016.83 1016.36 1015.88 1015.41 1014.97
1018.02 1018.43 1018.85 1019.26 1019.65 1020.03 1020.38 1020.71 1021.04 1021.37 1021.70 1022.01 1022.30 1022.55 1022.75 1022.89 1022.98 1023.02 1023.03 1023.00 1022.95 1022.88 1022.77 1022.62 1022.42 1022.16 1021.82 1021.43 1020.98 1020.50 1020.00 1019.51 1019.04 1018.58 1018.13 1017.68 1017.23 1016.75 1016.25 1015.74 1015.22 1014.71 1014.22
1018.72 1019.10 1019.49 1019.89 1020.27 1020.63 1020.97 1021.30 1021.61 1021.92 1022.21 1022.47 1022.71 1022.90 1023.04 1023.12 1023.16 1023.15 1023.11 1023.04 1022.95 1022.84 1022.69 1022.50 1022.25 1021.95 1021.58 1021.14 1020.66 1020.16 1019.63 1019.12 1018.61 1018.12 1017.64 1017.16 1016.66 1016.14 1015.60 1015.05 1014.48 1013.93 1013.41
1019.37 1019.73 1020.11 1020.50 1020.88 1021.24 1021.58 1021.90 1022.20 1022.49 1022.75 1022.97 1023.15 1023.28 1023.36 1023.38 1023.35 1023.28 1023.19 1023.07 1022.92 1022.76 1022.56 1022.33 1022.04 1021.68 1021.27 1020.80 1020.28 1019.74 1019.18 1018.64 1018.10 1017.57 1017.06 1016.54 1016.01 1015.46 1014.89 1014.30 1013.71 1013.13 1012.58
1019.97 1020.33 1020.70 1021.09 1021.47 1021.83 1022.17 1022.50 1022.79 1023.06 1023.29 1023.48 1023.60 1023.68 1023.69 1023.64 1023.55 1023.42 1023.26 1023.07 1022.87 1022.65 1022.40 1022.11 1021.76 1021.36 1020.90 1020.39 1019.84 1019.25 1018.66 1018.08 1017.51 1016.95 1016.41 1015.87 1015.32 1014.75 1014.16 1013.56 1012.96 1012.37 1011.80
1020.54 1020.89 1021.27 1021.65 1022.03 1022.40 1022.74 1023.06 1023.35 1023.60 1023.81 1023.96 1024.04 1024.06 1024.01 1023.90 1023.74 1023.53 1023.30 1023.05 1022.78 1022.50 1022.19 1021.84 1021.44 1020.99 1020.49 1019.93 1019.34 1018.72 1018.10 1017.49 1016.89 1016.31 1015.75 1015.20 1014.64 1014.08 1013.50 1012.91 1012.31 1011.73 1011.17
1021.09 1021.44 1021.81 1022.19 1022.56 1022.93 1023.27 1023.58 1023.85 1024.08 1024.26 1024.38 1024.42 1024.39 1024.28 1024.11 1023.88 1023.61 1023.31 1023.00 1022.66 1022.31 1021.94 1021.54 1021.09 1020.60 1020.05 1019.46 1018.84 1018.20 1017.55 1016.92 1016.31 1015.72 1015.16 1014.61 1014.07 1013.53 1012.98 1012.42 1011.85 1011.29 1010.75
1021.63 1021.97 1022.34 1022.70 1023.07 1023.42 1023.74 1024.04 1024.29 1024.50 1024.64 1024.72 1024.72 1024.64 1024.48 1024.26 1023.97 1023.64 1023.28 1022.91 1022.51 1022.11 1021.68 1021.22 1020.74 1020.20 1019.63 1019.01 1018.37 1017.71 1017.06 1016.42 1015.81 1015.24 1014.69 1014.17 1013.66 1013.16 1012.65 1012.13 1011.61 1011.08 1010.57
1022.15 1022.49 1022.84 1023.20 1023.54 1023.87 1024.17 1024.43 1024.66 1024.83 1024.94 1024.98 1024.94 1024.82 1024.61 1024.34 1024.01 1023.63 1023.22 1022.79 1022.35 1021.89 1021.42 1020.93 1020.41 1019.85 1019.25 1018.63 1017.98 1017.32 1016.67 1016.04 1015.44 1014.89 1014.37 1013.88 1013.42 1012.96 1012.51 1012.04 1011.57 1011.08 1010.59
1022.65 1022.98 1023.32 1023.66 1023.98 1024.28 1024.54 1024.77 1024.96 1025.09 1025.16 1025.16 1025.08 1024.92 1024.68 1024.37 1024.00 1023.58 1023.14 1022.67 1022.19 1021.70 1021.20 1020.68 1020.14 1019.57 1018.96 1018.33 1017.69 1017.04 1016.40 1015.79 1015.21 1014.68 1014.19 1013.74 1013.32 1012.91 1012.51 1012.09 1011.66 1011.21 1010.74
1023.10 1023.43 1023.76 1024.07 1024.36 1024.63 1024.86 1025.05 1025.19 1025.28 1025.31 1025.27 1025.15 1024.96 1024.69 1024.35 1023.95 1023.52 1023.05 1022.56 1022.06 1021.55 1021.04 1020.50 1019.95 1019.37 1018.77 1018.15 1017.51 1016.87 1016.24 1015.65 1015.09 1014.58 1014.12 1013.70 1013.31 1012.95 1012.58 1012.20 1011.81 1011.39 1010.94
1023.47 1023.79 1024.11 1024.41 1024.67 1024.90 1025.10 1025.25 1025.35 1025.40 1025.39 1025.32 1025.17 1024.95 1024.65 1024.30 1023.89 1023.44 1022.97 1022.48 1021.97 1021.46 1020.94 1020.40 1019.85 1019.27 1018.68 1018.06 1017.43 1016.80 1016.19 1015.60 1015.06 1014.56 1014.11 1013.71 1013.34 1013.00 1012.66 1012.32 1011.95 1011.56 1011.12
1023.72 1024.05 1024.35 1024.63 1024.88 1025.08 1025.25 1025.36 1025.43 1025.45 1025.41 1025.30 1025.13 1024.89 1024.59 1024.23 1023.82 1023.37 1022.90 1022.42 1021.92 1021.41 1020.90 1020.37 1019.83 1019.26 1018.67 1018.06 1017.44 1016.82 1016.21 1015.62 1015.08 1014.58 1014.13 1013.73 1013.37 1013.04 1012.72 1012.40 1012.06 1011.68 1011.27
1023.86 1024.17 1024.47 1024.73 1024.96 1025.15 1025.29 1025.38 1025.43 1025.42 1025.35 1025.23 1025.04 1024.79 1024.49 1024.13 1023.73 1023.30 1022.85 1022.38 1021.90 1021.41 1020.92 1020.40 1019.87 1019.31 1018.74 1018.14 1017.52 1016.90 1016.28 1015.70 1015.14 1014.63 1014.17 1013.76 1013.40 1013.07 1012.76 1012.46 1012.14 1011.80 1011.42
1023.87 1024.17 1024.45 1024.71 1024.92 1025.10 1025.23 1025.30 1025.33 1025.31 1025.23 1025.09 1024.90 1024.65 1024.36 1024.02 1023.64 1023.23 1022.80 1022.36 1021.91 1021.44 1020.97 1020.48 1019.96 1019.43 1018.86 1018.27 1017.66 1017.04 1016.42 1015.82 1015.25 1014.73 1014.26 1013.84 1013.47 1013.14 1012.84 1012.56 1012.28 1011.98 1011.65
1023.79 1024.07 1024.33 1024.58 1024.78 1024.95 1025.07 1025.14 1025.16 1025.13 1025.05 1024.92 1024.73 1024.49 1024.21 1023.89 1023.54 1023.16 1022.76 1022.35 1021.93 1021.50 1021.05 1020.59 1020.10 1019.58 1019.03 1018.45 1017.85 1017.24 1016.62 1016.01 1015.44 1014.90 1014.42 1013.99 1013.62 1013.30 1013.02 1012.76 1012.52 1012.28 1012.01
1023.66 1023.91 1024.16 1024.38 1024.58 1024.74 1024.86 1024.93 1024.96 1024.93 1024.85 1024.72 1024.55 1024.32 1024.06 1023.77 1023.44 1023.10 1022.73 1022.36 1021.97 1021.57 1021.16 1020.72 1020.26 1019.77 1019.24 1018.68 1018.10 1017.49 1016.88 1016.28 1015.70 1015.16 1014.68 1014.25 1013.89 1013.58 1013.33 1013.11 1012.92 1012.74 1012.55
1023.54 1023.75 1023.97 1024.18 1024.37 1024.53 1024.64 1024.72 1024.75 1024.73 1024.66 1024.55 1024.39 1024.18 1023.94 1023.67 1023.38 1023.06 1022.73 1022.39 1022.04 1021.67 1021.29 1020.88 1020.45 1019.98 1019.48 1018.94 1018.38 1017.79 1017.19 1016.60 1016.04 1015.51 1015.03 1014.62 1014.27 1013.99 1013.77 1013.60 1013.46 1013.35 1013.23
1023.45 1023.64 1023.83 1024.02 1024.20 1024.35 1024.47 1024.56 1024.59 1024.59 1024.53 1024.43 1024.28 1024.10 1023.88 1023.64 1023.37 1023.08 1022.78 1022.46 1022.14 1021.80 1021.44 1021.06 1020.65 1020.20 1019.72 1019.21 1018.67 1018.10 1017.53 1016.96 1016.41 1015.90 1015.45 1015.06 1014.73 1014.48 1014.30 1014.17 1014.08 1014.02 1013.97
1023.45 1023.60 1023.76 1023.94 1024.11 1024.26 1024.39 1024.48 1024.53 1024.53 1024.49 1024.40 1024.28 1024.11 1023.91 1023.69 1023.44 1023.17 1022.89 1022.59 1022.28 1021.96 1021.61 1021.24 1020.85 1020.42 1019.95 1019.45 1018.93 1018.39 1017.84 1017.29 1016.77 1016.29 1015.86 1015.49 1015.20 1014.98 1014.83 1014.73 1014.68 1014.67 1014.66
1023.53 1023.65 1023.80 1023.96 1024.13 1024.28 1024.41 1024.51 1024.57 1024.59 1024.57 1024.50 1024.38 1024.23 1024.05 1023.84 1023.60 1023.35 1023.07 1022.78 1022.48 1022.15 1021.80 1021.43 1021.03 1020.60 1020.14 1019.65 1019.14 1018.61 1018.08 1017.56 1017.06 1016.60 1016.20 1015.86 1015.60 1015.40 1015.28 1015.20 1015.18 1015.19 1015.21
1023.69 1023.80 1023.94 1024.09 1024.26 1024.42 1024.56 1024.67 1024.74 1024.78 1024.77 1024.71 1024.61 1024.48 1024.30 1024.10 1023.87 1023.61 1023.33 1023.04 1022.72 1022.37 1022.01 1021.62 1021.20 1020.76 1020.28 1019.78 1019.27 1018.74 1018.22 1017.72 1017.24 1016.81 1016.43 1016.12 1015.88 1015.70 1015.59 1015.54 1015.52 1015.54 1015.56
1023.92 1024.02 1024.16 1024.32 1024.49 1024.66 1024.81 1024.94 1025.03 1025.08 1025.08 1025.04 1024.96 1024.83 1024.66 1024.46 1024.22 1023.96 1023.66 1023.34 1023.00 1022.63 1022.23 1021.81 1021.36 1020.88 1020.38 1019.86 1019.34 1018.81 1018.29 1017.80 1017.34 1016.92 1016.57 1016.28 1016.05 1015.89 1015.79 1015.74 1015.73 1015.74 1015.76
1024.20 1024.30 1024.45 1024.62 1024.80 1024.98 1025.15 1025.29 1025.40 1025.46 1025.48 1025.45 1025.38 1025.26 1025.09 1024.88 1024.64 1024.36 1024.05 1023.70 1023.32 1022.92 1022.48 1022.02 1021.52 1021.01 1020.48 1019.93 1019.39 1018.85 1018.33 1017.84 1017.40 1017.00 1016.67 1016.40 1016.19 1016.04 1015.95 1015.90 1015.89 1015.89 1015.90
1024.51 1024.63 1024.79 1024.98 1025.18 1025.37 1025.56 1025.71 1025.83 1025.91 1025.94 1025.93 1025.86 1025.74 1025.57 1025.36 1025.11 1024.82 1024.48 1024.11 1023.70 1023.26 1022.78 1022.28 1021.75 1021.20 1020.63 1020.07 1019.50 1018.96 1018.44 1017.96 1017.52 1017.14 1016.83 1016.58 1016.39 1016.26 1016.17 1016.13 1016.12 1016.12 1016.12
Thickness
5635 5629 5622 5616 5610 5604 5598 5591 5585 5579 5573 5567 5560 5554 5548 5542 5536 5529 5523 5516 5509 5503 5497 5491 5485 5480 5475 5469 5463 5457 5452 5447 5451 5457 5447 5441 5435 5432 5431 5428 5426 5425 5424
5620 5614 5608 5602 5596 5589 5582 5576 5569 5563 5557 5551 5545 5539 5532 5526 5519 5513 5506 5499 5493 5487 5481 5475 5470 5466 5460 5455 5450 5444 5439 5434 5433 5438 5437 5429 5424 5420 5419 5417 5416 5416 5415
5607 5600 5593 5586 5580 5573 5566 5560 5554 5548 5542 5536 5530 5523 5516 5509 5502 5496 5489 5483 5477 5471 5466 5461 5456 5451 5447 5443 5437 5432 5428 5424 5420 5420 5422 5419 5416 5413 5412 5412 5411 5410 5409
5592 5585 5578 5570 5563 5557 5550 5545 5539 5533 5526 5520 5513 5506 5499 5493 5486 5480 5474 5468 5462 5457 5452 5448 5443 5439 5435 5431 5427 5422 5418 5414 5411 5410 5411 5411 5410 5410 5408 5409 5410 5408 5407
5576 5569 5561 5554 5548 5541 5535 5528 5522 5516 5510 5503 5496 5489 5483 5477 5471 5465 5459 5454 5449 5445 5440 5435 5431 5427 5425 5420 5416 5412 5408 5407 5405 5405 5406 5407 5408 5409 5408 5408 5408 5408 5408
5558 5551 5544 5538 5531 5524 5517 5511 5505 5499 5492 5486 5479 5473 5467 5463 5457 5452 5447 5442 5438 5434 5430 5425 5420 5417 5413 5409 5405 5402 5401 5401 5401 5402 5404 5405 5408 5408 5408 5407 5407 5408 5410
5541 5534 5528 5521 5514 5508 5501 5494 5487 5481 5475 5469 5463 5458 5453 5449 5445 5440 5435 5431 5426 5423 5419 5415 5411 5408 5404 5401 5399 5398 5398 5398 5399 5400 5403 5405 5407 5408 5408 5408 5407 5407 5408
5523 5517 5511 5505 5497 5490 5484 5477 5470 5464 5459 5453 5448 5444 5440 5436 5432 5428 5424 5419 5416 5413 5410 5407 5404 5401 5399 5397 5397 5398 5399 5401 5402 5403 5404 5405 5406 5406 5406 5405 5406 5406 5408
5507 5501 5495 5488 5481 5474 5467 5461 5455 5449 5444 5440 5435 5430 5427 5423 5420 5416 5413 5409 5407 5405 5404 5402 5400 5398 5396 5395 5396 5398 5401 5403 5404 5405 5405 5405 5405 5405 5404 5403 5404 5404 5406
5490 5485 5479 5472 5466 5459 5452 5446 5440 5436 5431 5426 5422 5417 5414 5410 5408 5405 5402 5400 5399 5399 5398 5398 5397 5396 5396 5396 5397 5399 5402 5404 5404 5406 5406 5406 5405 5404 5403 5401 5400 5400 5401
5475 5469 5463 5456 5450 5444 5437 5431 5426 5421 5417 5413 5409 5405 5402 5399 5397 5396 5394 5393 5393 5393 5394 5395 5395 5395 5397 5398 5399 5401 5402 5403 5405 5405 5406 5405 5404 5403 5402 5401 5400 5399 5399
5461 5455 5449 5442 5437 5430 5423 5417 5412 5408 5404 5399 5396 5394 5392 5390 5389 5388 5387 5387 5388 5389 5391 5392 5394 5396 5398 5401 5402 5403 5404 5404 5405 5405 5405 5404 5403 5403 5402 5401 5401 5400 5399
5448 5441 5435 5429 5422 5416 5411 5405 5400 5395 5391 5388 5385 5383 5382 5382 5381 5381 5382 5383 5385 5386 5388 5391 5395 5398 5400 5403 5405 5405 5406 5406 5405 5404 5404 5404 5403 5403 5403 5403 5404 5403 5403
5436 5428 5422 5415 5409 5404 5399 5394 5389 5385 5382 5379 5377 5375 5374 5374 5374 5374 5375 5378 5381 5384 5387 5392 5395 5399 5401 5403 5405 5406 5406 5405 5404 5404 5404 5404 5404 5404 5404 5404 5404 5404 5404
5424 5417 5410 5404 5398 5393 5388 5384 5381 5378 5374 5372 5369 5367 5367 5367 5367 5367 5369 5373 5376 5380 5385 5391 5395 5398 5401 5403 5405 5406 5406 5406 5406 5406 5405 5405 5405 5405 5405 5404 5404 5404 5404
5413 5406 5400 5394 5389 5384 5380 5377 5375 5372 5369 5366 5364 5362 5362 5361 5362 5364 5367 5372 5376 5381 5386 5390 5393 5396 5399 5401 5403 5405 5406 5406 5407 5407 5407 5407 5406 5406 5405 5405 5404 5403 5403
5405 5398 5392 5387 5382 5378 5374 5371 5368 5366 5364 5362 5360 5359 5358 5359 5360 5363 5367 5372 5378 5382 5385 5388 5392 5395 5397 5400 5402 5404 5405 5406 5407 5408 5409 5409 5408 5407 5406 5404 5403 5402 5401
5398 5392 5387 5381 5377 5374 5370 5367 5363 5361 5359 5358 5357 5357 5357 5358 5361 5364 5368 5374 5379 5383 5385 5388 5391 5394 5397 5399 5402 5404 5406 5408 5409 5410 5411 5411 5410 5409 5407 5404 5402 5400 5400
5394 5388 5383 5379 5375 5371 5368 5364 5361 5359 5357 5356 5355 5357 5358 5360 5363 5367 5371 5374 5378 5382 5385 5388 5391 5393 5396 5399 5402 5405 5407 5409 5411 5412 5413 5414 5414 5412 5410 5407 5403 5399 5399
5391 5387 5383 5378 5374 5370 5367 5364 5361 5359 5357 5356 5356 5357 5359 5362 5366 5370 5373 5376 5380 5383 5386 5389 5391 5394 5397 5400 5404 5407 5409 5412 5413 5414 5416 5417 5417 5415 5413 5410 5407 5403 5401
5391 5386 5383 5378 5374 5371 5368 5365 5362 5360 5359 5358 5358 5360 5361 5365 5368 5372 5375 5378 5381 5384 5387 5390 5393 5396 5399 5402 5405 5409 5412 5414 5416 5417 5418 5420 5421 5419 5417 5414 5410 5407 5404
5391 5387 5383 5379 5375 5372 5369 5366 5364 5363 5362 5361 5362 5364 5366 5369 5371 5374 5377 5380 5383 5385 5388 5391 5395 5398 5400 5403 5407 5411 5414 5417 5419 5420 5421 5423 5424 5423 5421 5418 5415 5411 5408
5392 5388 5384 5380 5377 5374 5371 5369 5367 5366 5365 5365 5366 5367 5369 5371 5373 5376 5378 5381 5384 5387 5390 5394 5397 5401 5404 5408 5411 5414 5417 5420 5422 5423 5424 5427 5427 5426 5425 5422 5419 5416 5413
5394 5390 5386 5382 5379 5377 5374 5372 5371 5370 5369 5369 5369 5370 5371 5373 5375 5377 5380 5383 5386 5389 5393 5396 5400 5403 5408 5413 5417 5420 5423 5426 5428 5430 5430 5431 5431 5430 5428 5425 5422 5419 5417
5395 5391 5388 5385 5383 5380 5378 5376 5375 5373 5373 5372 5372 5372 5373 5374 5376 5379 5381 5384 5387 5391 5395 5399 5402 5407 5411 5416 5420 5424 5429 5432 5435 5436 5437 5436 5435 5433 5431 5429 5427 5424 5422
5397 5394 5390 5387 5385 5383 5381 5379 5378 5376 5375 5374 5373 5373 5374 5375 5377 5379 5382 5385 5388 5392 5396 5401 5405 5409 5413 5418 5423 5427 5432 5435 5438 5440 5440 5439 5438 5437 5435 5433 5431 5430 5428